| time (UTC) | temp F | wind direction | speed MPH | gust MPH | rain 1hr in | rain 24hr in | rain mn in | humidity % | barometer mb |
| 20260504050512 | 48 | 277 | 1.0 | 6.0 | 0.00 | 0.25 | 0.14 | 97 | 1007.4 |
| 20260504050010 | 48 | 267 | 1.0 | 6.0 | 0.00 | 0.25 | 0.14 | 96 | 1007.3 |
| 20260504045509 | 48 | 271 | 1.0 | 3.0 | 0.00 | 0.25 | 0.14 | 97 | 1007.3 |
| 20260504045012 | 48 | 303 | 0.0 | 4.0 | 0.00 | 0.25 | 0.14 | 97 | 1007.2 |
| 20260504044518 | 49 | 295 | 1.0 | 4.0 | 0.00 | 0.25 | 0.14 | 97 | 1007.2 |
| 20260504044011 | 49 | 282 | 1.0 | 5.0 | 0.00 | 0.25 | 0.14 | 96 | 1007.2 |
| 20260504043506 | 49 | 286 | 1.0 | 3.0 | 0.00 | 0.25 | 0.14 | 97 | 1007.1 |
| 20260504043009 | 49 | 323 | 0.0 | 4.0 | 0.00 | 0.25 | 0.14 | 97 | 1007.2 |
| 20260504042504 | 49 | 257 | 1.0 | 4.0 | 0.00 | 0.25 | 0.14 | 97 | 1007.2 |
| 20260504042003 | 50 | 260 | 1.0 | 6.0 | 0.00 | 0.25 | 0.14 | 97 | 1007.2 |
| 20260504041504 | 50 | 278 | 1.0 | 5.0 | 0.00 | 0.25 | 0.14 | 97 | 1007.2 |
| 20260504041101 | 50 | 278 | 1.0 | 5.0 | 0.00 | 0.25 | 0.14 | 97 | 1007.1 |
| 20260504040600 | 50 | 278 | 1.0 | 5.0 | 0.01 | 0.25 | 0.14 | 97 | 1007.1 |
| 20260504040105 | 50 | 252 | 0.0 | 2.0 | 0.01 | 0.25 | 0.14 | 97 | 1007.1 |
| 20260504035559 | 50 | 252 | 0.0 | 2.0 | 0.01 | 0.25 | 0.14 | 97 | 1007.1 |
| 20260504035058 | 50 | 242 | 0.0 | 2.0 | 0.01 | 0.25 | 0.14 | 97 | 1007.1 |
| 20260504034612 | 50 | 242 | 0.0 | 4.0 | 0.01 | 0.25 | 0.14 | 97 | 1007.0 |
| 20260504034058 | 50 | 320 | 1.0 | 4.0 | 0.01 | 0.25 | 0.14 | 97 | 1007.1 |
| 20260504033600 | 50 | 36 | 0.0 | 3.0 | 0.01 | 0.25 | 0.14 | 97 | 1007.0 |
| 20260504033128 | 50 | 360 | 0.0 | 2.0 | 0.01 | 0.25 | 0.14 | 97 | 1007.0 |
| 20260504032558 | 50 | 312 | 0.0 | 2.0 | 0.02 | 0.25 | 0.14 | 97 | 1007.0 |
| 20260504032100 | 50 | 312 | 0.0 | 1.0 | 0.02 | 0.25 | 0.14 | 97 | 1006.9 |
| 20260504031603 | 50 | 312 | 0.0 | 1.0 | 0.02 | 0.25 | 0.14 | 97 | 1006.9 |
| 20260504031058 | 50 | 312 | 0.0 | 2.0 | 0.02 | 0.25 | 0.14 | 97 | 1006.9 |
| 20260504030557 | 50 | 312 | 0.0 | 2.0 | 0.01 | 0.24 | 0.13 | 97 | 1006.9 |
| 20260504030101 | 50 | 312 | 0.0 | 2.0 | 0.02 | 0.24 | 0.13 | 97 | 1006.8 |
| 20260504025557 | 50 | 312 | 0.0 | 1.0 | 0.02 | 0.24 | 0.13 | 97 | 1006.8 |
| 20260504025057 | 50 | 312 | 0.0 | 1.0 | 0.02 | 0.24 | 0.13 | 97 | 1006.8 |
| 20260504024557 | 50 | 312 | 0.0 | 2.0 | 0.02 | 0.24 | 0.13 | 97 | 1006.8 |
| 20260504024102 | 50 | 312 | 0.0 | 2.0 | 0.03 | 0.24 | 0.13 | 97 | 1006.7 |
| 20260504023557 | 50 | 312 | 0.0 | 1.0 | 0.03 | 0.24 | 0.13 | 97 | 1006.7 |
| 20260504023103 | 50 | 312 | 0.0 | 1.0 | 0.04 | 0.24 | 0.13 | 96 | 1006.7 |
| 20260504022558 | 50 | 312 | 0.0 | 0.0 | 0.03 | 0.24 | 0.13 | 96 | 1006.7 |
| 20260504022055 | 50 | 312 | 0.0 | 1.0 | 0.05 | 0.24 | 0.13 | 96 | 1006.7 |
| 20260504021557 | 50 | 312 | 0.0 | 1.0 | 0.06 | 0.24 | 0.13 | 96 | 1006.7 |
| 20260504021056 | 50 | 312 | 0.0 | 0.0 | 0.06 | 0.24 | 0.13 | 96 | 1006.6 |
| 20260504020556 | 50 | 312 | 0.0 | 2.0 | 0.07 | 0.24 | 0.13 | 96 | 1006.6 |
| 20260504020059 | 50 | 312 | 0.0 | 2.0 | 0.06 | 0.23 | 0.12 | 96 | 1006.7 |
| 20260504015554 | 50 | 312 | 0.0 | 1.0 | 0.07 | 0.23 | 0.12 | 96 | 1006.7 |
| 20260504015057 | 50 | 312 | 0.0 | 2.0 | 0.06 | 0.22 | 0.11 | 96 | 1006.7 |
| 20260504014554 | 51 | 312 | 0.0 | 2.0 | 0.06 | 0.22 | 0.11 | 96 | 1006.7 |
| 20260504014053 | 51 | 131 | 0.0 | 2.0 | 0.06 | 0.21 | 0.10 | 96 | 1006.7 |
| 20260504013552 | 51 | 5 | 0.0 | 2.0 | 0.06 | 0.21 | 0.10 | 96 | 1006.6 |
| 20260504013106 | 51 | 207 | 0.0 | 3.0 | 0.05 | 0.20 | 0.09 | 96 | 1006.7 |
| 20260504012552 | 51 | 205 | 0.0 | 3.0 | 0.05 | 0.20 | 0.09 | 96 | 1006.7 |
| 20260504012052 | 51 | 115 | 0.0 | 3.0 | 0.03 | 0.19 | 0.08 | 97 | 1006.6 |
| 20260504011551 | 51 | 181 | 0.0 | 1.0 | 0.03 | 0.18 | 0.07 | 97 | 1006.7 |
| 20260504011049 | 51 | 181 | 0.0 | 0.0 | 0.02 | 0.17 | 0.06 | 96 | 1006.7 |
| 20260504010549 | 51 | 181 | 0.0 | 0.0 | 0.02 | 0.17 | 0.06 | 96 | 1006.8 |
| 20260504010058 | 51 | 181 | 0.0 | 1.0 | 0.02 | 0.17 | 0.06 | 96 | 1006.9 |
| 20260504005552 | 51 | 181 | 0.0 | 1.0 | 0.01 | 0.16 | 0.05 | 96 | 1006.8 |
| 20260504005049 | 51 | 181 | 0.0 | 0.0 | 0.01 | 0.16 | 0.05 | 96 | 1006.7 |
| 20260504004603 | 51 | 181 | 0.0 | 0.0 | 0.02 | 0.16 | 0.05 | 96 | 1006.7 |
| 20260504004048 | 51 | 181 | 0.0 | 0.0 | 0.02 | 0.16 | 0.05 | 96 | 1006.8 |
| 20260504003547 | 51 | 181 | 0.0 | 0.0 | 0.02 | 0.16 | 0.05 | 96 | 1006.8 |
| 20260504003048 | 51 | 181 | 0.0 | 0.0 | 0.02 | 0.16 | 0.05 | 96 | 1006.8 |
| 20260504002547 | 51 | 181 | 0.0 | 0.0 | 0.02 | 0.16 | 0.05 | 96 | 1006.8 |
| 20260504002047 | 51 | 181 | 0.0 | 1.0 | 0.02 | 0.16 | 0.05 | 96 | 1006.9 |
| 20260504001546 | 51 | 181 | 0.0 | 1.0 | 0.02 | 0.15 | 0.04 | 96 | 1006.9 |
| 20260504001046 | 51 | 181 | 0.0 | 1.0 | 0.02 | 0.15 | 0.04 | 96 | 1007.1 |
| 20260504000545 | 51 | 181 | 0.0 | 2.0 | 0.02 | 0.15 | 0.04 | 96 | 1007.1 |
| 20260504000045 | 51 | 181 | 0.0 | 2.0 | 0.02 | 0.15 | 0.04 | 96 | 1007.1 |
| 20260503235543 | 51 | 181 | 0.0 | 1.0 | 0.02 | 0.15 | 0.04 | 96 | 1007.1 |
| 20260503235043 | 51 | 181 | 0.0 | 1.0 | 0.02 | 0.15 | 0.04 | 96 | 1007.1 |
| 20260503234546 | 51 | 181 | 0.0 | 1.0 | 0.02 | 0.14 | 0.03 | 96 | 1007.1 |
| 20260503234043 | 51 | 181 | 0.0 | 1.0 | 0.02 | 0.14 | 0.03 | 96 | 1007.2 |
| 20260503233545 | 51 | 181 | 0.0 | 0.0 | 0.02 | 0.14 | 0.03 | 96 | 1007.2 |
| 20260503233041 | 51 | 181 | 0.0 | 1.0 | 0.02 | 0.14 | 0.03 | 96 | 1007.3 |
| 20260503232545 | 51 | 181 | 0.0 | 1.0 | 0.02 | 0.14 | 0.03 | 96 | 1007.3 |
| 20260503232041 | 51 | 181 | 0.0 | 1.0 | 0.01 | 0.13 | 0.02 | 96 | 1007.3 |
| 20260503231540 | 51 | 181 | 0.0 | 1.0 | 0.01 | 0.13 | 0.02 | 96 | 1007.4 |
| 20260503231039 | 51 | 181 | 0.0 | 2.0 | 0.02 | 0.13 | 0.02 | 96 | 1007.4 |
| 20260503230539 | 51 | 181 | 0.0 | 2.0 | 0.01 | 0.13 | 0.02 | 96 | 1007.5 |
| 20260503230040 | 51 | 181 | 0.0 | 1.0 | 0.01 | 0.13 | 0.02 | 96 | 1007.5 |
| 20260503225538 | 51 | 181 | 0.0 | 2.0 | 0.02 | 0.13 | 0.02 | 96 | 1007.5 |
| 20260503225038 | 51 | 181 | 0.0 | 2.0 | 0.02 | 0.13 | 0.02 | 96 | 1007.5 |
| 20260503224538 | 51 | 181 | 0.0 | 2.0 | 0.02 | 0.13 | 0.02 | 96 | 1007.6 |
| 20260503224038 | 51 | 181 | 0.0 | 2.0 | 0.02 | 0.13 | 0.02 | 95 | 1007.7 |
| 20260503223537 | 51 | 181 | 1.0 | 2.0 | 0.03 | 0.13 | 0.02 | 95 | 1007.6 |
| 20260503223037 | 51 | 181 | 0.0 | 2.0 | 0.04 | 0.13 | 0.02 | 95 | 1007.6 |
| 20260503222536 | 51 | 181 | 0.0 | 2.0 | 0.05 | 0.13 | 0.02 | 95 | 1007.6 |
| 20260503222139 | 51 | 181 | 0.0 | 1.0 | 0.05 | 0.13 | 0.02 | 95 | 1007.6 |
| 20260503221541 | 51 | 181 | 0.0 | 1.0 | 0.06 | 0.13 | 0.02 | 95 | 1007.7 |
| 20260503221037 | 51 | 181 | 0.0 | 1.0 | 0.05 | 0.12 | 0.01 | 95 | 1007.7 |
| 20260503220535 | 52 | 181 | 0.0 | 1.0 | 0.06 | 0.12 | 0.01 | 95 | 1007.7 |
| 20260503220034 | 52 | 181 | 0.0 | 0.0 | 0.06 | 0.12 | 0.01 | 95 | 1007.8 |
| 20260503215533 | 52 | 181 | 0.0 | 0.0 | 0.06 | 0.11 | 0.11 | 95 | 1007.9 |
| 20260503215032 | 52 | 181 | 0.0 | 0.0 | 0.08 | 0.11 | 0.11 | 95 | 1007.9 |
| 20260503214534 | 52 | 181 | 0.0 | 1.0 | 0.09 | 0.10 | 0.10 | 95 | 1007.9 |
| 20260503214035 | 52 | 181 | 0.0 | 1.0 | 0.08 | 0.09 | 0.09 | 95 | 1008.1 |
| 20260503213532 | 52 | 181 | 0.0 | 0.0 | 0.09 | 0.09 | 0.09 | 95 | 1008.1 |
| 20260503213044 | 52 | 181 | 0.0 | 0.0 | 0.08 | 0.09 | 0.09 | 95 | 1008.2 |
| 20260503212532 | 52 | 181 | 0.0 | 0.0 | 0.07 | 0.08 | 0.08 | 95 | 1008.3 |
| 20260503212032 | 52 | 181 | 0.0 | 0.0 | 0.07 | 0.08 | 0.08 | 95 | 1008.4 |
| 20260503211531 | 52 | 181 | 0.0 | 1.0 | 0.06 | 0.07 | 0.07 | 95 | 1008.5 |
| 20260503211031 | 52 | 181 | 0.0 | 1.0 | 0.06 | 0.07 | 0.07 | 95 | 1008.6 |
| 20260503210533 | 52 | 181 | 0.0 | 3.0 | 0.06 | 0.06 | 0.06 | 95 | 1008.8 |
| 20260503210031 | 52 | 181 | 0.0 | 5.0 | 0.06 | 0.06 | 0.06 | 95 | 1008.8 |
| 20260503205531 | 52 | 195 | 2.0 | 7.0 | 0.04 | 0.05 | 0.05 | 94 | 1009.0 |
| 20260503205031 | 52 | 144 | 4.0 | 7.0 | 0.02 | 0.03 | 0.03 | 94 | 1009.2 |
| 20260503204545 | 52 | 169 | 2.0 | 4.0 | 0.01 | 0.02 | 0.02 | 94 | 1009.2 |
| 20260503204029 | 52 | 69 | 1.0 | 2.0 | 0.00 | 0.01 | 0.01 | 94 | 1008.7 |
| 20260503203529 | 52 | 69 | 0.0 | 0.0 | 0.00 | 0.01 | 0.01 | 94 | 1008.3 |
| 20260503203031 | 52 | 69 | 0.0 | 0.0 | 0.00 | 0.01 | 0.01 | 94 | 1008.1 |
| 20260503202529 | 52 | 69 | 0.0 | 0.0 | 0.00 | 0.01 | 0.01 | 94 | 1008.0 |
| 20260503202029 | 52 | 69 | 0.0 | 0.0 | 0.00 | 0.01 | 0.01 | 93 | 1008.0 |
| 20260503201529 | 52 | 69 | 0.0 | 0.0 | 0.00 | 0.01 | 0.01 | 93 | 1008.0 |
| 20260503201028 | 52 | 69 | 0.0 | 0.0 | 0.00 | 0.01 | 0.01 | 93 | 1008.0 |
| 20260503200528 | 52 | 69 | 0.0 | 0.0 | 0.00 | 0.01 | 0.01 | 93 | 1008.0 |
| 20260503200028 | 53 | 69 | 0.0 | 1.0 | 0.01 | 0.01 | 0.01 | 93 | 1008.0 |
| 20260503195527 | 53 | 69 | 0.0 | 1.0 | 0.01 | 0.01 | 0.01 | 93 | 1007.9 |
| 20260503195026 | 53 | 69 | 0.0 | 0.0 | 0.01 | 0.01 | 0.01 | 93 | 1008.1 |
| 20260503194526 | 53 | 69 | 0.0 | 0.0 | 0.01 | 0.01 | 0.01 | 93 | 1008.2 |
| 20260503194028 | 53 | 69 | 0.0 | 0.0 | 0.01 | 0.01 | 0.01 | 92 | 1008.2 |
| 20260503193526 | 53 | 69 | 0.0 | 0.0 | 0.01 | 0.01 | 0.01 | 92 | 1008.1 |
| 20260503193033 | 53 | 69 | 0.0 | 3.0 | 0.01 | 0.01 | 0.01 | 92 | 1008.3 |
| 20260503192525 | 53 | 69 | 0.0 | 3.0 | 0.01 | 0.01 | 0.01 | 91 | 1008.3 |
| 20260503192024 | 53 | 198 | 0.0 | 0.0 | 0.01 | 0.01 | 0.01 | 91 | 1008.3 |
| 20260503191523 | 53 | 198 | 0.0 | 0.0 | 0.01 | 0.01 | 0.01 | 90 | 1008.4 |
| 20260503191023 | 54 | 198 | 0.0 | 0.0 | 0.01 | 0.01 | 0.01 | 89 | 1008.5 |
| 20260503190522 | 54 | 198 | 0.0 | 0.0 | 0.01 | 0.01 | 0.01 | 89 | 1008.6 |
| 20260503190021 | 54 | 198 | 0.0 | 0.0 | 0.00 | 0.00 | 0.00 | 89 | 1008.7 |
| 20260503185520 | 55 | 198 | 0.0 | 0.0 | 0.00 | 0.00 | 0.00 | 89 | 1008.7 |
| 20260503185021 | 55 | 198 | 0.0 | 0.0 | 0.00 | 0.00 | 0.00 | 88 | 1008.7 |
| 20260503184533 | 55 | 198 | 0.0 | 0.0 | 0.00 | 0.00 | 0.00 | 87 | 1008.8 |
| 20260503184020 | 55 | 198 | 0.0 | 0.0 | 0.00 | 0.00 | 0.00 | 87 | 1008.8 |
| 20260503183520 | 55 | 198 | 0.0 | 2.0 | 0.00 | 0.00 | 0.00 | 86 | 1008.9 |
| 20260503183021 | 55 | 198 | 0.0 | 3.0 | 0.00 | 0.00 | 0.00 | 86 | 1008.9 |
| 20260503182518 | 55 | 198 | 0.0 | 3.0 | 0.00 | 0.00 | 0.00 | 85 | 1009.0 |
| 20260503182018 | 56 | 198 | 1.0 | 3.0 | 0.00 | 0.00 | 0.00 | 85 | 1009.0 |
| 20260503181518 | 56 | 198 | 1.0 | 2.0 | 0.00 | 0.00 | 0.00 | 86 | 1009.0 |
| 20260503181019 | 56 | 198 | 0.0 | 2.0 | 0.00 | 0.00 | 0.00 | 87 | 1009.0 |
| 20260503180518 | 55 | 198 | 0.0 | 3.0 | 0.00 | 0.00 | 0.00 | 87 | 1009.0 |
| 20260503180024 | 55 | 198 | 1.0 | 3.0 | 0.00 | 0.00 | 0.00 | 87 | 1009.0 |
| 20260503175517 | 55 | 198 | 0.0 | 3.0 | 0.00 | 0.00 | 0.00 | 88 | 1009.0 |
| 20260503175017 | 54 | 198 | 1.0 | 3.0 | 0.00 | 0.00 | 0.00 | 88 | 1009.0 |
| 20260503174518 | 54 | 198 | 0.0 | 3.0 | 0.00 | 0.00 | 0.00 | 88 | 1008.9 |
| 20260503174017 | 54 | 198 | 1.0 | 3.0 | 0.00 | 0.00 | 0.00 | 89 | 1009.0 |
| 20260503173517 | 54 | 200 | 0.0 | 4.0 | 0.00 | 0.00 | 0.00 | 88 | 1009.0 |
| 20260503173017 | 54 | 192 | 1.0 | 4.0 | 0.00 | 0.00 | 0.00 | 88 | 1009.0 |
| 20260503172515 | 54 | 181 | 1.0 | 5.0 | 0.00 | 0.00 | 0.00 | 88 | 1009.0 |
| 20260503172015 | 54 | 208 | 2.0 | 5.0 | 0.00 | 0.00 | 0.00 | 87 | 1009.1 |
| 20260503171514 | 55 | 187 | 1.0 | 4.0 | 0.00 | 0.00 | 0.00 | 87 | 1009.1 |
| 20260503171017 | 55 | 180 | 1.0 | 5.0 | 0.00 | 0.00 | 0.00 | 87 | 1009.1 |
| 20260503170514 | 55 | 159 | 1.0 | 6.0 | 0.00 | 0.00 | 0.00 | 87 | 1009.1 |
| 20260503151006 | 60 | 155 | 6.0 | 11.0 | 0.00 | 0.00 | 0.00 | 76 | 1009.6 |
| 20260503150503 | 60 | 155 | 4.0 | 10.0 | 0.00 | 0.00 | 0.00 | 77 | 1009.6 |
| 20260503131051 | 57 | 139 | 1.0 | 7.0 | 0.00 | 0.00 | 0.00 | 82 | 1010.6 |
| 20260503130549 | 57 | 194 | 3.0 | 7.0 | 0.00 | 0.00 | 0.00 | 83 | 1010.6 |
| 20260503110543 | 60 | 184 | 3.0 | 8.0 | 0.00 | 0.00 | 0.00 | 74 | 1011.1 |
| 20260503081529 | 55 | 242 | 1.0 | 8.0 | 0.00 | 0.00 | 0.00 | 83 | 1011.4 |
| 20260503081029 | 55 | 213 | 2.0 | 5.0 | 0.00 | 0.00 | 0.00 | 83 | 1011.4 |
| 20260503080529 | 55 | 191 | 1.0 | 6.0 | 0.00 | 0.00 | 0.00 | 85 | 1011.4 |
| 20260503072526 | 54 | 255 | 3.0 | 7.0 | 0.00 | 0.00 | 0.00 | 86 | 1011.3 |
| 20260503072026 | 54 | 219 | 3.0 | 10.0 | 0.00 | 0.00 | 0.00 | 87 | 1011.4 |
| 20260503071525 | 54 | 331 | 2.0 | 10.0 | 0.00 | 0.00 | 0.00 | 87 | 1011.4 |
| 20260503071024 | 54 | 322 | 2.0 | 7.0 | 0.00 | 0.00 | 0.00 | 88 | 1011.2 |
| 20260503070525 | 53 | 215 | 1.0 | 9.0 | 0.00 | 0.00 | 0.00 | 88 | 1011.2 |